Location: Unspecified
(0.0000°N, 0.0000°E)
Time: 11:55:41
(UTC-04:00)

Hubble Space Telescope - Pass Details

Date: 26 September 2021
Orbit: 535 x 539 km, 28.5° (Epoch: 24 October)

Event Time Altitude Azimuth Distance (km) Brightness Sun altitude
Rises 15:19:09 0° 297° (WNW) 2,662 5.3 -22.0°
Reaches altitude 10° 15:21:24 10° 295° (WNW) 1,775 4.3 -22.6°
Enters shadow 15:25:28 73° 217° (SW) 559 0.8 -23.6°
